Home   Weather   Warren   Past weeks

Flag for USA Past Weather in Warren, Michigan, USA — Yesterday and Last 2 Weeks

Now
55 °F

Sunny.


Feels Like: 54 °F
Forecast: 52 / 65 °F
Wind: 5 mph from Northwest

Location: Detroit City Airport

Current Time: Sep 28, 2016 at 9:53:41 AM

Latest Report: Sep 28, 2016 at 8:53 AM


Visibility: 10 mi

Pressure: 29.86 "Hg

Humidity: 83%

Dew Point: 50 °F

Location of WarrenLocation

Past Weather in Warren — Graph

°F

Warren Temperature Yesterday

Maximum temperature yesterday: 69 °F (at 2:53 PM)
Minimum temperature yesterday: 52 °F (at 6:53 AM)
Average temperature yesterday: 61 °F

High & Low Weather Summary for the Past Weeks

 TemperatureHumidityPressure
High85 °F (Sep 22, 1:53 PM)100% (Sep 17, 7:53 AM)30.31 "Hg (Sep 17, 7:53 AM)
Low52 °F (Sep 25, 3:53 AM)26% (Sep 27, 4:53 PM)29.72 "Hg (Sep 27, 2:53 PM)
Average67 °F72%30.06 "Hg
* Reported Sep 13 8:53 AM — Sep 28 8:53 AM, Warren, Weather by CustomWeather, © 2016

Note: Actual official high and low records may vary slightly from our data, if they occured in-between our weather recording intervals... More about our weather records

Advertising

Warren Weather History for the Previous 24 Hours

Scroll right to see more
 ConditionsComfort  
Time TempWeatherWind HumidityBarometerVisibility
8:53 AM
Wed, Sep 28
55 °FSunny.5 mph83%29.86 "Hg10 mi
7:53 AM56 °FPassing clouds.5 mph81%29.84 "Hg10 mi
6:53 AM56 °FClear.3 mph81%29.82 "Hg10 mi
5:53 AM56 °FClear.No wind81%29.82 "Hg10 mi
4:53 AM56 °FClear.3 mph77%29.82 "Hg10 mi
3:53 AM57 °FClear.5 mph72%29.82 "Hg10 mi
2:53 AM56 °FClear.5 mph75%29.83 "Hg10 mi
1:53 AM57 °FClear.6 mph69%29.83 "Hg10 mi
12:53 AM58 °FClear.No wind62%29.82 "Hg10 mi
11:53 PM
Tue, Sep 27
59 °FClear.No wind60%29.82 "Hg10 mi
10:53 PM60 °FPassing clouds.3 mph56%29.81 "Hg10 mi
9:53 PM62 °FPassing clouds.No wind50%29.80 "Hg10 mi
8:53 PM64 °FOvercast.No wind38%29.78 "Hg10 mi
7:53 PM66 °FOvercast.No wind32%29.77 "Hg10 mi
6:53 PM67 °FSunny.9 mph29%29.76 "Hg10 mi
5:53 PM67 °FSunny.14 mph27%29.74 "Hg10 mi
4:53 PM68 °FSunny.16 mph26%29.72 "Hg10 mi
3:53 PM68 °FScattered clouds.14 mph31%29.72 "Hg10 mi
2:53 PM69 °FPassing clouds.15 mph31%29.72 "Hg10 mi
1:53 PM67 °FSunny.14 mph35%29.73 "Hg10 mi
12:53 PM66 °FSunny.22 mph36%29.74 "Hg10 mi
11:53 AM64 °FSunny.14 mph43%29.76 "Hg10 mi
10:53 AM62 °FSunny.15 mph50%29.77 "Hg10 mi
9:53 AM59 °FSunny.13 mph54%29.80 "Hg10 mi
Weather by CustomWeather, © 2016

See weather overviewHow to use our weather pages